Location: 22
(39.7117°N, 89.5929°W)
Time: 18:23:25
(UTC-05:00)

Tiangong - Visible Passes

Search period start: 18 May 2024 00:00
Search period end: 28 May 2024 00:00
Orbit: 372 x 376 km, 41.5° (Epoch: 18 May)

Date Brightness Start Highest point End Pass type
(mag) Time Alt. Az. Time Alt. Az. Time Alt. Az.
19 May -0.1 05:07:04 10° SSW 05:09:18 18° SSE 05:11:32 10° ESE visible
21 May -0.8 04:37:24 15° SSW 04:39:22 28° SSE 04:42:05 10° E visible
22 May 0.2 03:36:54 15° SE 03:36:54 15° SE 03:38:10 10° ESE visible
23 May -1.6 04:08:12 32° SSW 04:09:03 41° SSE 04:12:00 10° E visible
24 May 0.4 03:07:24 15° ESE 03:07:24 15° ESE 03:08:11 10° E visible
24 May -2.2 04:39:21 13° WSW 04:41:58 87° NNW 04:45:04 10° ENE visible
25 May -2.1 03:38:26 60° SSE 03:38:26 60° SSE 03:41:24 10° E visible
26 May 0.9 02:37:25 11° E 02:37:25 11° E 02:37:30 10° E visible
26 May -2.0 04:09:21 23° W 04:11:06 71° N 04:14:11 10° ENE visible
27 May -1.0 03:08:14 38° E 03:08:14 38° E 03:10:18 10° ENE visible
27 May -1.7 04:40:47 10° W 04:43:51 59° N 04:46:55 10° E visible
